Millville, NJ

5:03 AM EST on February 11, 2016 (GMT -0500)
Millville Municipal

Weather History for KMIV - March, 2014

Change the Weather History Date:

Tuesday, March 25, 2014

  Actual Average Record
Temperature  
Mean Temperature 27 °F -  
Max Temperature 37 °F 52 °F 77 °F (1963)
Min Temperature 17 °F 32 °F 17 °F (2014)
Degree Days  
Heating Degree Days 38    
Moisture  
Dew Point 25 °F    
Average Humidity 84    
Maximum Humidity 96    
Minimum Humidity 50    
Precipitation  
Precipitation 0.00 in - - ()
Sea Level Pressure  
Sea Level Pressure 29.95 in    
Wind  
Wind Speed 6 mph (NE)    
Max Wind Speed 14 mph    
Max Gust Speed -    
Visibility 5 miles    
Events Fog , Snow    
Averages and records for this station are not official NWS values.
T = Trace of Precipitation, MM = Missing Value Source: NWS Daily Summary

Daily Weather History Graph

Daily Weather History Graph

Search for Another Location

Airport or City:

Trip Planner

Search our weather history database for the weather conditions in past years. The results will help you decide how hot, cold, wet, or windy it might be!

Date:

Astronomy

Mar. 25, 2014 Rise Set
Actual Time 6:55 AM EDT 7:17 PM EDT
Civil Twilight 6:28 AM EDT 7:44 PM EDT
Nautical Twilight 5:57 AM EDT 8:15 PM EDT
Astronomical Twilight 5:25 AM EDT 8:47 PM EDT
Moon 3:13 AM EDT (3/25) 1:46 PM EDT (3/25)
Length of Visible Light 13h 15m
Length of Day
12h 21m
Waning Crescent, 32% of the Moon is Illuminated
Mar 25
Waning Crescent
Mar 30
New
Apr 7
First Quarter
Apr 15
Full
Apr 22
Last Quarter

Hourly Weather History & Observations

Time (EDT) Temp. Windchill Dew Point Humidity Pressure Visibility Wind Dir Wind Speed Gust Speed Precip Events Conditions
12:54 AM 19.0 °F - 10.9 °F 71% 30.17 in 10.0 mi Calm Calm - N/A   Clear
1:54 AM 17.1 °F - 12.0 °F 81% 30.17 in 10.0 mi Calm Calm - N/A   Clear
2:54 AM 18.0 °F - 12.0 °F 78% 30.16 in 10.0 mi Calm Calm - N/A   Clear
3:54 AM 17.1 °F - 12.0 °F 81% 30.15 in 10.0 mi Calm Calm - N/A   Clear
4:54 AM 17.1 °F - 12.9 °F 84% 30.13 in 10.0 mi Calm Calm - N/A   Clear
5:54 AM 19.0 °F - 14.0 °F 81% 30.10 in 10.0 mi Calm Calm - N/A   Clear
6:54 AM 21.0 °F - 17.1 °F 85% 30.12 in 10.0 mi Calm Calm - N/A   Mostly Cloudy
7:54 AM 26.1 °F 20.5 °F 21.9 °F 84% 30.10 in 10.0 mi East 4.6 mph - N/A   Overcast
8:54 AM 30.9 °F 25.2 °F 24.1 °F 76% 30.10 in 10.0 mi ESE 5.8 mph - N/A   Overcast
9:54 AM 34.0 °F 28.0 °F 24.1 °F 67% 30.11 in 10.0 mi SE 6.9 mph - N/A   Overcast
10:54 AM 37.0 °F 31.6 °F 19.9 °F 50% 30.10 in 10.0 mi SE 6.9 mph - N/A   Overcast
11:54 AM 37.0 °F 29.8 °F 23.0 °F 57% 30.09 in 9.0 mi SE 10.4 mph - N/A   Overcast
12:54 PM 37.0 °F 30.4 °F 23.0 °F 57% 30.05 in 10.0 mi SSE 9.2 mph - N/A   Overcast
1:54 PM 36.0 °F 28.0 °F 25.0 °F 64% 30.01 in 10.0 mi SE 11.5 mph - N/A   Overcast
2:29 PM 37.0 °F 29.8 °F 25.0 °F 62% 29.98 in 10.0 mi ESE 10.4 mph - N/A   Overcast
2:47 PM 36.0 °F 28.5 °F 25.0 °F 64% 29.97 in 10.0 mi East 10.4 mph - N/A   Overcast
2:54 PM 36.0 °F 27.5 °F 26.1 °F 67% 29.96 in 10.0 mi East 12.7 mph - N/A   Overcast
3:54 PM 35.1 °F 25.9 °F 26.1 °F 70% 29.91 in 10.0 mi ENE 13.8 mph - N/A   Overcast
4:05 PM 35.1 °F 25.9 °F 26.1 °F 70% 29.90 in 10.0 mi East 13.8 mph - N/A   Overcast
4:46 PM 33.1 °F 23.9 °F 28.0 °F 82% 29.89 in 2.0 mi East 12.7 mph - 0.00 in Snow Light Snow
4:54 PM 32.0 °F 24.2 °F 28.9 °F 88% 29.88 in 1.8 mi East 9.2 mph - 0.00 in Snow Light Snow
5:16 PM 32.0 °F 22.5 °F 30.0 °F 92% 29.88 in 1.0 mi ENE 12.7 mph - 0.00 in Snow Light Snow
5:20 PM 32.0 °F 23.0 °F 28.9 °F 88% 29.88 in 0.8 mi ENE 11.5 mph - 0.00 in Snow Light Snow
5:27 PM 30.9 °F 22.2 °F 30.0 °F 96% 29.88 in 0.8 mi ENE 10.4 mph - 0.00 in Snow Light Snow
5:54 PM 30.9 °F 23.5 °F 30.0 °F 96% 29.88 in 0.8 mi NE 8.1 mph - 0.00 in Snow Light Snow
6:32 PM 30.9 °F 20.7 °F 28.9 °F 92% 29.88 in 0.5 mi ENE 13.8 mph - 0.00 in Fog , Snow Snow
6:54 PM 30.9 °F 22.2 °F 30.0 °F 96% 29.87 in 0.5 mi NNE 10.4 mph - 0.00 in Fog , Snow Snow
7:24 PM 30.0 °F 20.0 °F 28.9 °F 96% 29.87 in 1.0 mi NE 12.7 mph - 0.00 in Snow Light Snow
7:52 PM 30.2 °F 20.8 °F 28.4 °F 93% 29.87 in 1.0 mi NNE 11.5 mph - 0.00 in Snow Light Snow
7:54 PM 30.0 °F 21.7 °F 28.9 °F 96% 29.87 in 1.0 mi NNE 9.2 mph - 0.00 in Snow Light Snow
8:06 PM 30.0 °F 21.7 °F 28.9 °F 96% 29.86 in 1.0 mi NNE 9.2 mph - 0.00 in Snow Light Snow
8:44 PM 30.0 °F 21.1 °F 28.9 °F 96% 29.87 in 0.8 mi NNE 10.4 mph - 0.00 in Snow Light Snow
8:54 PM 30.0 °F 20.5 °F 28.9 °F 96% 29.87 in 0.8 mi NNE 11.5 mph - 0.00 in Snow Light Snow
8:58 PM 30.0 °F 20.0 °F 28.9 °F 96% 29.87 in 1.0 mi NNE 12.7 mph - 0.00 in Snow Light Snow
9:24 PM 30.0 °F 21.1 °F 28.9 °F 96% 29.87 in 1.8 mi North 10.4 mph - 0.00 in Snow Light Snow
9:43 PM 30.0 °F 20.0 °F 28.9 °F 96% 29.86 in 1.0 mi NNE 12.7 mph - 0.00 in Snow Light Snow
9:54 PM 30.0 °F 21.1 °F 28.9 °F 96% 29.86 in 1.2 mi NNE 10.4 mph - 0.00 in Snow Light Snow
10:20 PM 30.0 °F 21.7 °F 28.9 °F 96% 29.86 in 1.8 mi North 9.2 mph - 0.00 in Snow Light Snow
10:29 PM 30.0 °F 21.7 °F 28.9 °F 96% 29.86 in 2.0 mi North 9.2 mph - 0.00 in Snow Light Snow
10:54 PM 30.0 °F 21.7 °F 28.9 °F 96% 29.85 in 2.0 mi North 9.2 mph - 0.00 in Snow Light Snow
11:08 PM 30.0 °F 21.1 °F 28.9 °F 96% 29.85 in 1.8 mi North 10.4 mph - 0.00 in Snow Light Snow
11:26 PM 30.0 °F 20.5 °F 28.0 °F 92% 29.85 in 2.0 mi North 11.5 mph - 0.00 in Snow Light Snow
11:51 PM 30.2 °F 21.3 °F 28.4 °F 93% 29.85 in 2.0 mi North 10.4 mph - 0.00 in Snow Light Snow
11:54 PM 30.0 °F 20.5 °F 28.0 °F 92% 29.85 in 2.5 mi North 11.5 mph - 0.00 in Snow Light Snow